AFR672 LFPG-FMEE

Flight info

Callsign AFR672
Flight time N/A
Altitude 35000
Route LANVI DCT DEVDI DCT RIPUS DCT RESIA DCT LAPAB DCT LABIN DCT ELGUS DCT AIOSA DCT NOSTO DCT SALUN/N0475F370 N705 BOPIX N710 TAKRI P751 LXR M999 JDW G650 RASKA/N0487F380 G650 ULONI UG650 KONET/N0489F370 DCT XADOX/N0484F390 DCT DWA UN304 APKAK/N0482F400 UN304 DENLI/N0482F410 UN304 UVENA UVENA2R
Aircraft B772/H-SDE2E3FGHIJ5LORVWXY/LB1D1

Departure

Time N/A
Airport Charles de Gaulle International Airport (LFPG)

Arrival

Time 2026-04-24 08:33
Airport Roland Garros Airport (FMEE)
Time Latitude Longitude Altitude Speed Heading
2026-04-24 07:13 -12.07327 51.38863 40871 ft 500 kts 159°
2026-04-24 07:13 -12.10486 51.40274 40870 ft 500 kts 158°
2026-04-24 07:13 -12.16875 51.43130 40873 ft 498 kts 158°
2026-04-24 07:14 -12.23229 51.45971 40870 ft 496 kts 159°
2026-04-24 07:14 -12.29599 51.48821 40872 ft 498 kts 159°
2026-04-24 07:15 -12.35939 51.51660 40867 ft 498 kts 159°
2026-04-24 07:15 -12.42261 51.54492 40870 ft 495 kts 159°
2026-04-24 07:16 -12.48566 51.57318 40873 ft 494 kts 159°
2026-04-24 07:16 -12.54896 51.60155 40874 ft 494 kts 159°
2026-04-24 07:17 -12.61211 51.62989 40875 ft 495 kts 159°
2026-04-24 07:17 -12.67503 51.65813 40869 ft 494 kts 158°
2026-04-24 07:18 -12.73802 51.68642 40867 ft 494 kts 159°
2026-04-24 07:18 -12.80118 51.71481 40870 ft 491 kts 159°
2026-04-24 07:19 -12.86389 51.74300 40867 ft 492 kts 159°
2026-04-24 07:19 -12.92668 51.77125 40872 ft 491 kts 159°
2026-04-24 07:20 -12.98926 51.79941 40870 ft 492 kts 158°
2026-04-24 07:20 -13.05193 51.82764 40872 ft 493 kts 158°
2026-04-24 07:21 -13.11464 51.85590 40873 ft 492 kts 158°
2026-04-24 07:21 -13.17715 51.88408 40882 ft 491 kts 158°
2026-04-24 07:22 -13.23969 51.91230 40887 ft 489 kts 158°
2026-04-24 07:22 -13.30207 51.94045 40887 ft 491 kts 158°
2026-04-24 07:23 -13.36481 51.96879 40886 ft 489 kts 159°
2026-04-24 07:23 -13.42709 51.99692 40879 ft 490 kts 159°
2026-04-24 07:24 -13.48957 52.02518 40878 ft 488 kts 159°
2026-04-24 07:24 -13.55180 52.05333 40876 ft 488 kts 158°
2026-04-24 07:25 -13.61385 52.08142 40877 ft 487 kts 158°
2026-04-24 07:25 -13.67605 52.10959 40881 ft 486 kts 158°
2026-04-24 07:26 -13.73803 52.13768 40883 ft 487 kts 158°
2026-04-24 07:26 -13.80010 52.16581 40878 ft 489 kts 158°
2026-04-24 07:27 -13.86237 52.19407 40882 ft 487 kts 158°
2026-04-24 07:27 -13.92455 52.22230 40874 ft 486 kts 158°
2026-04-24 07:28 -13.98601 52.25022 40868 ft 484 kts 158°
2026-04-24 07:28 -14.04764 52.27822 40867 ft 484 kts 158°
2026-04-24 07:29 -14.10973 52.30646 40871 ft 484 kts 158°
2026-04-24 07:29 -14.17118 52.33442 40871 ft 486 kts 158°
2026-04-24 07:30 -14.23348 52.36279 40867 ft 487 kts 158°
2026-04-24 07:30 -14.29541 52.39100 40874 ft 486 kts 158°
2026-04-24 07:31 -14.35690 52.41903 40873 ft 485 kts 158°
2026-04-24 07:31 -14.41886 52.44730 40878 ft 485 kts 158°
2026-04-24 07:32 -14.48043 52.47539 40882 ft 485 kts 158°
2026-04-24 07:32 -14.54256 52.50377 40884 ft 485 kts 158°
2026-04-24 07:33 -14.60432 52.53200 40886 ft 485 kts 158°
2026-04-24 07:33 -14.66589 52.56015 40885 ft 486 kts 158°
2026-04-24 07:34 -14.72760 52.58838 40886 ft 486 kts 158°
2026-04-24 07:34 -14.78975 52.61684 40889 ft 487 kts 158°
2026-04-24 07:35 -14.85154 52.64514 40886 ft 487 kts 158°
2026-04-24 07:35 -14.91355 52.67357 40885 ft 486 kts 158°
2026-04-24 07:36 -14.97544 52.70196 40883 ft 486 kts 158°
2026-04-24 07:36 -15.03755 52.73046 40884 ft 486 kts 158°
2026-04-24 07:37 -15.09918 52.75877 40891 ft 485 kts 158°
2026-04-24 07:37 -15.16112 52.78723 40886 ft 488 kts 158°
2026-04-24 07:38 -15.22340 52.81587 40884 ft 488 kts 158°
2026-04-24 07:38 -15.28545 52.84443 40885 ft 488 kts 158°
2026-04-24 07:39 -15.34741 52.87295 40884 ft 488 kts 158°
2026-04-24 07:39 -15.40970 52.90166 40885 ft 489 kts 158°
2026-04-24 07:40 -15.47189 52.93033 40888 ft 489 kts 158°
2026-04-24 07:40 -15.53416 52.95906 40885 ft 488 kts 158°
2026-04-24 07:41 -15.59638 52.98779 40882 ft 489 kts 158°
2026-04-24 07:41 -15.65845 53.01646 40879 ft 488 kts 158°
2026-04-24 07:42 -15.72067 53.04522 40877 ft 489 kts 158°
2026-04-24 07:42 -15.78260 53.07387 40881 ft 489 kts 158°
2026-04-24 07:43 -15.84520 53.10285 40879 ft 490 kts 158°
2026-04-24 07:43 -15.90742 53.13167 40876 ft 490 kts 158°
2026-04-24 07:44 -15.96978 53.16058 40886 ft 489 kts 158°
2026-04-24 07:44 -16.03198 53.18943 40883 ft 489 kts 157°
2026-04-24 07:45 -16.09392 53.21818 40883 ft 489 kts 158°
2026-04-24 07:45 -16.15631 53.24717 40888 ft 488 kts 157°
2026-04-24 07:46 -16.21828 53.27597 40878 ft 489 kts 157°
2026-04-24 07:46 -16.28025 53.30479 40891 ft 488 kts 157°
2026-04-24 07:47 -16.34245 53.33374 40889 ft 489 kts 157°
2026-04-24 07:47 -16.40478 53.36278 40901 ft 489 kts 157°
2026-04-24 07:48 -16.46671 53.39165 40898 ft 489 kts 157°
2026-04-24 07:48 -16.52880 53.42061 40900 ft 489 kts 157°
2026-04-24 07:49 -16.59122 53.44975 40894 ft 488 kts 157°
2026-04-24 07:49 -16.65327 53.47874 40897 ft 489 kts 157°
2026-04-24 07:50 -16.71544 53.50780 40904 ft 490 kts 157°
2026-04-24 07:50 -16.77761 53.53688 40903 ft 490 kts 157°
2026-04-24 07:51 -16.83977 53.56598 40901 ft 490 kts 157°
2026-04-24 07:51 -16.90193 53.59510 40904 ft 490 kts 157°
2026-04-24 07:52 -16.96442 53.62440 40898 ft 489 kts 157°
2026-04-24 07:52 -17.02662 53.65358 40892 ft 490 kts 156°
2026-04-24 07:53 -17.08865 53.68271 40897 ft 489 kts 156°
2026-04-24 07:53 -17.15104 53.71202 40895 ft 490 kts 156°
2026-04-24 07:54 -17.21294 53.74113 40893 ft 491 kts 156°
2026-04-24 07:54 -17.27544 53.77054 40892 ft 489 kts 156°
2026-04-24 07:55 -17.33744 53.79973 40893 ft 489 kts 156°
2026-04-24 07:55 -17.39947 53.82896 40897 ft 488 kts 156°
2026-04-24 07:56 -17.46143 53.85818 40897 ft 488 kts 156°
2026-04-24 07:56 -17.52317 53.88732 40902 ft 489 kts 156°
2026-04-24 07:57 -17.58548 53.91676 40897 ft 489 kts 156°
2026-04-24 07:57 -17.64770 53.94616 40891 ft 489 kts 156°
2026-04-24 07:58 -17.70948 53.97539 40891 ft 489 kts 156°
2026-04-24 07:58 -17.77159 54.00479 40887 ft 487 kts 156°
2026-04-24 07:59 -17.83351 54.03413 40889 ft 488 kts 156°
2026-04-24 07:59 -17.89542 54.06348 40888 ft 488 kts 156°
2026-04-24 08:00 -17.95698 54.09269 40889 ft 488 kts 156°
2026-04-24 08:00 -18.01912 54.12219 40897 ft 489 kts 156°
2026-04-24 08:01 -18.08101 54.15160 40910 ft 488 kts 156°
2026-04-24 08:01 -18.14288 54.18087 40910 ft 488 kts 156°
2026-04-24 08:02 -18.20509 54.21016 40906 ft 488 kts 156°
2026-04-24 08:02 -18.26706 54.23937 40913 ft 487 kts 156°
2026-04-24 08:03 -18.32867 54.26844 40912 ft 487 kts 156°
2026-04-24 08:03 -18.39052 54.29765 40914 ft 486 kts 156°
2026-04-24 08:04 -18.45233 54.32686 40917 ft 487 kts 156°
2026-04-24 08:04 -18.51417 54.35612 40920 ft 486 kts 156°
2026-04-24 08:05 -18.57628 54.38552 40919 ft 488 kts 156°
2026-04-24 08:05 -18.63856 54.41372 40922 ft 487 kts 160°
2026-04-24 08:06 -18.70197 54.43860 40917 ft 486 kts 160°
2026-04-24 08:06 -18.76518 54.46356 40912 ft 485 kts 160°
2026-04-24 08:07 -18.82862 54.48877 40911 ft 486 kts 160°
2026-04-24 08:07 -18.89124 54.51376 40907 ft 473 kts 160°
2026-04-24 08:08 -18.95179 54.53798 40849 ft 458 kts 160°
2026-04-24 08:08 -18.98161 54.54991 40043 ft 457 kts 160°
2026-04-24 08:09 -19.04161 54.57396 37752 ft 464 kts 160°
2026-04-24 08:09 -19.07168 54.58602 37053 ft 462 kts 160°
2026-04-24 08:09 -19.10167 54.59806 36285 ft 461 kts 160°
2026-04-24 08:09 -19.13166 54.61010 35489 ft 461 kts 159°
2026-04-24 08:10 -19.16150 54.62209 34673 ft 461 kts 159°
2026-04-24 08:10 -19.19167 54.63422 33828 ft 461 kts 159°
2026-04-24 08:10 -19.22150 54.64621 32991 ft 461 kts 159°
2026-04-24 08:10 -19.25140 54.65824 32171 ft 460 kts 159°
2026-04-24 08:11 -19.28135 54.67030 31339 ft 460 kts 159°
2026-04-24 08:11 -19.31099 54.68223 30544 ft 460 kts 159°
2026-04-24 08:11 -19.34076 54.69422 30037 ft 453 kts 159°
2026-04-24 08:11 -19.36998 54.70600 29543 ft 446 kts 159°
2026-04-24 08:12 -19.39873 54.71759 29028 ft 441 kts 159°
2026-04-24 08:12 -19.42762 54.72924 28495 ft 437 kts 159°
2026-04-24 08:12 -19.45574 54.74058 27976 ft 434 kts 159°
2026-04-24 08:12 -19.48406 54.75201 27435 ft 431 kts 159°
2026-04-24 08:13 -19.51197 54.76328 26894 ft 428 kts 159°
2026-04-24 08:13 -19.53940 54.77435 26356 ft 425 kts 159°
2026-04-24 08:13 -19.56722 54.78559 25804 ft 423 kts 159°
2026-04-24 08:13 -19.59455 54.79664 25262 ft 420 kts 159°
2026-04-24 08:14 -19.62187 54.80768 24706 ft 418 kts 158°
2026-04-24 08:14 -19.64908 54.81868 24161 ft 415 kts 158°
2026-04-24 08:14 -19.67582 54.82950 23611 ft 413 kts 158°
2026-04-24 08:14 -19.70252 54.84031 23058 ft 411 kts 158°
2026-04-24 08:15 -19.72915 54.85109 22506 ft 408 kts 158°
2026-04-24 08:15 -19.75582 54.86189 21950 ft 406 kts 158°
2026-04-24 08:15 -19.78213 54.87255 21394 ft 404 kts 158°
2026-04-24 08:15 -19.80824 54.88313 20844 ft 401 kts 158°
2026-04-24 08:16 -19.83406 54.89360 20298 ft 399 kts 158°
2026-04-24 08:16 -19.86017 54.90419 19742 ft 397 kts 158°
2026-04-24 08:16 -19.88565 54.91453 19202 ft 395 kts 158°
2026-04-24 08:16 -19.91143 54.92500 18652 ft 393 kts 158°
2026-04-24 08:17 -19.93692 54.93535 18103 ft 391 kts 158°
2026-04-24 08:17 -19.96235 54.94568 17559 ft 389 kts 158°
2026-04-24 08:17 -19.98752 54.95591 17017 ft 387 kts 158°
2026-04-24 08:17 -20.01272 54.96614 16470 ft 386 kts 157°
2026-04-24 08:18 -20.03757 54.97625 15930 ft 384 kts 157°
2026-04-24 08:18 -20.06251 54.98639 15374 ft 382 kts 157°
2026-04-24 08:18 -20.08728 54.99647 14826 ft 381 kts 157°
2026-04-24 08:18 -20.11210 55.00657 14279 ft 379 kts 158°
2026-04-24 08:19 -20.13659 55.01654 13737 ft 377 kts 158°
2026-04-24 08:19 -20.16090 55.02645 13203 ft 375 kts 158°
2026-04-24 08:19 -20.18542 55.03643 12665 ft 373 kts 157°
2026-04-24 08:19 -20.20964 55.04631 12129 ft 371 kts 157°
2026-04-24 08:20 -20.23341 55.05600 11600 ft 369 kts 157°
2026-04-24 08:20 -20.25743 55.06579 11065 ft 366 kts 157°
2026-04-24 08:20 -20.28116 55.07547 10582 ft 362 kts 157°
2026-04-24 08:20 -20.30417 55.08485 10465 ft 347 kts 157°
2026-04-24 08:21 -20.32650 55.09396 10386 ft 333 kts 157°
2026-04-24 08:21 -20.34790 55.10269 10283 ft 320 kts 157°
2026-04-24 08:21 -20.36816 55.11097 10162 ft 309 kts 156°
2026-04-24 08:21 -20.38804 55.11910 10017 ft 300 kts 156°
2026-04-24 08:22 -20.40760 55.12710 9669 ft 300 kts 156°
2026-04-24 08:22 -20.42717 55.13511 9293 ft 300 kts 156°
2026-04-24 08:22 -20.44642 55.14298 9046 ft 295 kts 156°
2026-04-24 08:22 -20.46576 55.15089 8644 ft 296 kts 156°
2026-04-24 08:23 -20.48483 55.15869 8375 ft 290 kts 156°
2026-04-24 08:23 -20.50338 55.16627 8149 ft 282 kts 156°
2026-04-24 08:23 -20.52145 55.17366 7965 ft 273 kts 156°
2026-04-24 08:23 -20.53918 55.18093 7606 ft 272 kts 156°
2026-04-24 08:24 -20.55697 55.18823 7231 ft 271 kts 156°
2026-04-24 08:24 -20.57449 55.19540 6846 ft 269 kts 156°
2026-04-24 08:24 -20.59202 55.20259 6441 ft 267 kts 156°
2026-04-24 08:24 -20.60915 55.20961 6031 ft 265 kts 157°
2026-04-24 08:25 -20.62652 55.21672 5545 ft 264 kts 156°
2026-04-24 08:25 -20.64342 55.22366 5073 ft 263 kts 156°
2026-04-24 08:25 -20.66057 55.23069 4596 ft 261 kts 156°
2026-04-24 08:25 -20.67755 55.23766 4131 ft 259 kts 156°
2026-04-24 08:26 -20.69422 55.24450 3665 ft 258 kts 156°
2026-04-24 08:26 -20.71097 55.25137 3443 ft 254 kts 156°
2026-04-24 08:26 -20.72717 55.25801 3411 ft 243 kts 156°
2026-04-24 08:26 -20.74276 55.26441 3380 ft 233 kts 156°
2026-04-24 08:27 -20.75747 55.27045 3349 ft 223 kts 156°
2026-04-24 08:27 -20.77181 55.27697 3188 ft 219 kts 143°
2026-04-24 08:27 -20.78203 55.28838 3013 ft 212 kts 121°
2026-04-24 08:27 -20.78944 55.30205 2993 ft 212 kts 116°
2026-04-24 08:28 -20.79577 55.31580 3008 ft 199 kts 112°
2026-04-24 08:28 -20.80159 55.32914 2998 ft 195 kts 114°
2026-04-24 08:28 -20.80756 55.34199 3000 ft 190 kts 114°
2026-04-24 08:28 -20.81346 55.35439 2999 ft 186 kts 114°
2026-04-24 08:29 -20.81947 55.36701 2770 ft 190 kts 114°
2026-04-24 08:29 -20.82543 55.37959 2543 ft 190 kts 114°
2026-04-24 08:29 -20.83131 55.39202 2300 ft 187 kts 114°
2026-04-24 08:29 -20.83711 55.40431 2063 ft 184 kts 114°
2026-04-24 08:30 -20.84287 55.41654 1829 ft 181 kts 114°
2026-04-24 08:30 -20.84842 55.42828 1604 ft 171 kts 114°
2026-04-24 08:30 -20.85362 55.43932 1400 ft 162 kts 114°
2026-04-24 08:30 -20.85857 55.44983 1188 ft 154 kts 114°
2026-04-24 08:31 -20.86313 55.45951 1009 ft 139 kts 114°
2026-04-24 08:31 -20.86741 55.46859 843 ft 136 kts 114°
2026-04-24 08:31 -20.87161 55.47752 672 ft 134 kts 114°
2026-04-24 08:31 -20.87586 55.48644 469 ft 133 kts 114°
2026-04-24 08:32 -20.87988 55.49518 290 ft 130 kts 114°
2026-04-24 08:32 -20.88401 55.50377 160 ft 130 kts 115°
2026-04-24 08:32 -20.88788 55.51203 121 ft 108 kts 117°
2026-04-24 08:32 -20.89052 55.51764 130 ft 54 kts 116°
2026-04-24 08:33 -20.89137 55.51946 132 ft 12 kts 116°
2026-04-24 08:33 -20.89176 55.52032 133 ft 13 kts 116°
2026-04-24 08:33 -20.89218 55.52125 133 ft 14 kts 116°
2026-04-24 08:33 -20.89256 55.52207 134 ft 7 kts 121°
2026-04-24 08:34 -20.89300 55.52232 135 ft 7 kts 181°
2026-04-24 08:34 -20.89349 55.52214 138 ft 7 kts 207°
2026-04-24 08:34 -20.89384 55.52191 141 ft 5 kts 214°
2026-04-24 08:34 -20.89403 55.52146 143 ft 11 kts 271°
2026-04-24 08:35 -20.89362 55.52034 144 ft 20 kts 296°
2026-04-24 08:35 -20.89294 55.51889 145 ft 22 kts 297°
2026-04-24 08:35 -20.89219 55.51731 145 ft 25 kts 296°
2026-04-24 08:35 -20.89147 55.51576 143 ft 21 kts 296°
2026-04-24 08:36 -20.89083 55.51439 139 ft 18 kts 296°
2026-04-24 08:36 -20.89029 55.51324 136 ft 16 kts 296°
2026-04-24 08:36 -20.88979 55.51216 133 ft 12 kts 296°
2026-04-24 08:36 -20.88958 55.51162 133 ft 7 kts 269°
2026-04-24 08:37 -20.88989 55.51126 135 ft 6 kts 210°
2026-04-24 08:37 -20.89012 55.51114 136 ft 1 kts 206°
2026-04-24 08:37 -20.89016 55.51112 136 ft 0 kts 206°